Location: Katowice
(50.2611°N, 19.0242°E)
Time: 06:12:20
(UTC+02:00)

Vanguard 1 - Pass Details

Date: 03 October 2020
Orbit: 650 x 3832 km, 34.2° (Epoch: 21 October)

Event Time Altitude Azimuth Distance (km) Brightness Sun altitude
Rises 21:51:25 0° 237° (WSW) 4,621 13.7 -33.0°
Reaches altitude 10° 21:56:11 10° 220° (SW) 3,076 12.6 -33.6°
Enters shadow 21:56:33 11° 218° (SW) 2,970 12.5 -33.6°
